KHY4032 RPLL-RPVM

Flight info

Callsign KHY4032
Flight time 0h 53m
Altitude 31000
Route IPATA2R IPATA W25 BATAY BATAY3P
Aircraft B3XM/M-SDE1FGHILORVWXY/HB1

Departure

Time 2026-05-05 13:46
Airport Ninoy Aquino International Airport (RPLL)

Arrival

Time 2026-05-05 14:40
Airport Mactan Cebu International Airport (RPVM)
Time Latitude Longitude Altitude Speed Heading
2026-05-05 12:36 14.52144 121.01046 82 ft 0 kts 46°
2026-05-05 13:29 14.52143 121.01045 82 ft 1 kts 46°
2026-05-05 13:30 14.52134 121.01035 82 ft 2 kts 46°
2026-05-05 13:30 14.52123 121.01023 82 ft 2 kts 46°
2026-05-05 13:30 14.52113 121.01012 82 ft 2 kts 46°
2026-05-05 13:30 14.52103 121.01002 82 ft 2 kts 42°
2026-05-05 13:31 14.52093 121.00993 82 ft 2 kts 46°
2026-05-05 13:31 14.52083 121.00981 82 ft 2 kts 45°
2026-05-05 13:31 14.52073 121.00970 82 ft 2 kts 45°
2026-05-05 13:31 14.52066 121.00963 82 ft 1 kts 85°
2026-05-05 13:32 14.52068 121.00955 82 ft 0 kts 130°
2026-05-05 13:32 14.52067 121.00956 82 ft 1 kts 127°
2026-05-05 13:32 14.52048 121.00977 82 ft 3 kts 135°
2026-05-05 13:32 14.52041 121.00984 82 ft 0 kts 135°
2026-05-05 13:33 14.52041 121.00985 82 ft 0 kts 135°
2026-05-05 13:35 14.52040 121.00986 82 ft 0 kts 135°
2026-05-05 13:35 14.52030 121.00996 82 ft 3 kts 135°
2026-05-05 13:35 14.52011 121.01015 82 ft 5 kts 135°
2026-05-05 13:35 14.51985 121.01042 82 ft 6 kts 135°
2026-05-05 13:36 14.51963 121.01063 82 ft 2 kts 140°
2026-05-05 13:36 14.51956 121.01070 82 ft 1 kts 144°
2026-05-05 13:36 14.51941 121.01078 82 ft 1 kts 162°
2026-05-05 13:36 14.51938 121.01076 82 ft 0 kts 225°
2026-05-05 13:37 14.51930 121.01066 82 ft 3 kts 230°
2026-05-05 13:37 14.51903 121.01047 82 ft 5 kts 186°
2026-05-05 13:37 14.51862 121.01067 82 ft 8 kts 140°
2026-05-05 13:37 14.51810 121.01119 82 ft 12 kts 135°
2026-05-05 13:38 14.51744 121.01188 82 ft 15 kts 135°
2026-05-05 13:38 14.51662 121.01272 82 ft 17 kts 135°
2026-05-05 13:38 14.51574 121.01364 82 ft 18 kts 135°
2026-05-05 13:38 14.51477 121.01464 82 ft 20 kts 135°
2026-05-05 13:39 14.51408 121.01535 82 ft 21 kts 135°
2026-05-05 13:40 14.51061 121.01894 82 ft 0 kts 135°
2026-05-05 13:41 14.51059 121.01896 82 ft 1 kts 135°
2026-05-05 13:41 14.51048 121.01908 82 ft 5 kts 135°
2026-05-05 13:41 14.51001 121.01914 82 ft 6 kts 225°
2026-05-05 13:41 14.50968 121.01856 82 ft 11 kts 240°
2026-05-05 13:42 14.50919 121.01767 82 ft 16 kts 239°
2026-05-05 13:42 14.50854 121.01650 82 ft 21 kts 240°
2026-05-05 13:42 14.50773 121.01506 82 ft 24 kts 240°
2026-05-05 13:42 14.50687 121.01350 82 ft 26 kts 240°
2026-05-05 13:43 14.50594 121.01183 82 ft 28 kts 240°
2026-05-05 13:43 14.50507 121.01024 82 ft 21 kts 240°
2026-05-05 13:43 14.50431 121.00889 82 ft 22 kts 240°
2026-05-05 13:43 14.50357 121.00756 82 ft 24 kts 240°
2026-05-05 13:44 14.50268 121.00597 82 ft 26 kts 240°
2026-05-05 13:44 14.50175 121.00429 82 ft 28 kts 240°
2026-05-05 13:44 14.50077 121.00253 82 ft 28 kts 240°
2026-05-05 13:44 14.49990 121.00095 82 ft 23 kts 240°
2026-05-05 13:45 14.49908 120.99967 82 ft 14 kts 205°
2026-05-05 13:45 14.49831 120.99989 82 ft 12 kts 151°
2026-05-05 13:45 14.49807 121.00054 82 ft 10 kts 63°
2026-05-05 13:45 14.49925 121.00269 82 ft 65 kts 60°
2026-05-05 13:46 14.50248 121.00849 82 ft 120 kts 60°
2026-05-05 13:46 14.50739 121.01730 112 ft 161 kts 62°
2026-05-05 13:46 14.51311 121.02743 477 ft 166 kts 62°
2026-05-05 13:46 14.51877 121.03794 923 ft 170 kts 64°
2026-05-05 13:47 14.52452 121.04868 1304 ft 178 kts 63°
2026-05-05 13:47 14.53071 121.05998 1601 ft 192 kts 63°
2026-05-05 13:47 14.53762 121.07260 1767 ft 214 kts 63°
2026-05-05 13:47 14.54498 121.08601 2344 ft 221 kts 63°
2026-05-05 13:48 14.55296 121.10059 2729 ft 238 kts 62°
2026-05-05 13:48 14.56130 121.11585 3313 ft 255 kts 62°
2026-05-05 13:48 14.56961 121.13271 3942 ft 271 kts 73°
2026-05-05 13:48 14.57408 121.15168 4782 ft 278 kts 83°
2026-05-05 13:49 14.57603 121.17155 5695 ft 282 kts 92°
2026-05-05 13:49 14.57345 121.19141 6565 ft 284 kts 108°
2026-05-05 13:49 14.56594 121.21009 7415 ft 286 kts 123°
2026-05-05 13:49 14.55390 121.22638 8223 ft 289 kts 137°
2026-05-05 13:50 14.53899 121.24038 8931 ft 297 kts 142°
2026-05-05 13:50 14.52405 121.25328 9705 ft 302 kts 143°
2026-05-05 13:50 14.50783 121.26714 10308 ft 315 kts 143°
2026-05-05 13:50 14.49033 121.28203 10592 ft 339 kts 142°
2026-05-05 13:51 14.47187 121.29778 11319 ft 346 kts 142°
2026-05-05 13:51 14.45332 121.31360 12051 ft 352 kts 141°
2026-05-05 13:51 14.43456 121.32961 12851 ft 355 kts 141°
2026-05-05 13:51 14.41555 121.34583 13651 ft 358 kts 142°
2026-05-05 13:52 14.39627 121.36227 14441 ft 360 kts 142°
2026-05-05 13:52 14.37718 121.37856 15209 ft 363 kts 142°
2026-05-05 13:52 14.35779 121.39510 15969 ft 365 kts 142°
2026-05-05 13:52 14.33804 121.41194 16720 ft 368 kts 142°
2026-05-05 13:53 14.31852 121.42857 17431 ft 370 kts 142°
2026-05-05 13:53 14.29855 121.44560 18139 ft 373 kts 142°
2026-05-05 13:53 14.27863 121.46256 18829 ft 375 kts 142°
2026-05-05 13:53 14.25846 121.47975 19510 ft 378 kts 142°
2026-05-05 13:54 14.23840 121.49683 20165 ft 380 kts 142°
2026-05-05 13:54 14.21788 121.51430 20816 ft 382 kts 142°
2026-05-05 13:54 14.19762 121.53155 21426 ft 385 kts 142°
2026-05-05 13:54 14.17688 121.54920 22032 ft 387 kts 142°
2026-05-05 13:55 14.15611 121.56687 22616 ft 390 kts 142°
2026-05-05 13:55 14.13526 121.58460 23181 ft 392 kts 142°
2026-05-05 13:55 14.11421 121.60250 23737 ft 395 kts 142°
2026-05-05 13:55 14.09310 121.62045 24277 ft 397 kts 142°
2026-05-05 13:56 14.07187 121.63850 24805 ft 400 kts 142°
2026-05-05 13:56 14.05050 121.65666 25319 ft 402 kts 142°
2026-05-05 13:56 14.02871 121.67518 25819 ft 405 kts 142°
2026-05-05 13:56 14.00723 121.69342 26293 ft 407 kts 142°
2026-05-05 13:57 13.98530 121.71204 26762 ft 410 kts 142°
2026-05-05 13:57 13.96337 121.73066 27222 ft 412 kts 142°
2026-05-05 13:57 13.94115 121.74952 27670 ft 414 kts 142°
2026-05-05 13:57 13.91913 121.76820 28101 ft 417 kts 141°
2026-05-05 13:58 13.89673 121.78722 28519 ft 419 kts 141°
2026-05-05 13:58 13.87504 121.80562 28924 ft 422 kts 141°
2026-05-05 13:58 13.85219 121.82446 29331 ft 424 kts 143°
2026-05-05 13:58 13.82849 121.84248 29733 ft 426 kts 144°
2026-05-05 13:59 13.78057 121.87837 30492 ft 431 kts 144°
2026-05-05 13:59 13.75619 121.89668 30692 ft 438 kts 144°
2026-05-05 14:00 13.70596 121.93446 30720 ft 461 kts 144°
2026-05-05 14:00 13.68854 121.94756 30730 ft 469 kts 144°
2026-05-05 14:00 13.65282 121.97443 30896 ft 478 kts 144°
2026-05-05 14:00 13.62641 121.99432 30908 ft 478 kts 144°
2026-05-05 14:01 13.57302 122.03449 30912 ft 476 kts 144°
2026-05-05 14:01 13.52868 122.06784 30912 ft 476 kts 144°
2026-05-05 14:02 13.46618 122.11484 30912 ft 476 kts 144°
2026-05-05 14:02 13.41287 122.15490 30911 ft 476 kts 144°
2026-05-05 14:03 13.35965 122.19488 30911 ft 476 kts 144°
2026-05-05 14:03 13.30658 122.23473 30911 ft 476 kts 144°
2026-05-05 14:04 13.25323 122.27478 30911 ft 476 kts 144°
2026-05-05 14:04 13.19987 122.31480 30911 ft 476 kts 144°
2026-05-05 14:05 13.14667 122.35470 30911 ft 476 kts 144°
2026-05-05 14:05 13.09324 122.39473 30911 ft 477 kts 144°
2026-05-05 14:06 13.03976 122.43479 30911 ft 480 kts 144°
2026-05-05 14:06 12.98584 122.47515 30911 ft 482 kts 144°
2026-05-05 14:07 12.93153 122.51578 30912 ft 484 kts 144°
2026-05-05 14:07 12.87739 122.55627 30913 ft 483 kts 144°
2026-05-05 14:08 12.83243 122.58988 30913 ft 483 kts 144°
2026-05-05 14:08 12.77894 122.62985 30913 ft 483 kts 144°
2026-05-05 14:09 12.71751 122.67570 30910 ft 483 kts 144°
2026-05-05 14:09 12.66340 122.71609 30906 ft 483 kts 144°
2026-05-05 14:10 12.60946 122.75632 30898 ft 483 kts 144°
2026-05-05 14:10 12.55530 122.79668 30891 ft 483 kts 144°
2026-05-05 14:11 12.50085 122.83726 30886 ft 483 kts 144°
2026-05-05 14:11 12.44668 122.87759 30885 ft 483 kts 144°
2026-05-05 14:12 12.39254 122.91788 30885 ft 483 kts 144°
2026-05-05 14:12 12.33850 122.95808 30884 ft 483 kts 144°
2026-05-05 14:13 12.28428 122.99839 30884 ft 484 kts 144°
2026-05-05 14:13 12.22997 123.03875 30884 ft 484 kts 144°
2026-05-05 14:14 12.17574 123.07902 30884 ft 484 kts 144°
2026-05-05 14:14 12.12156 123.11924 30885 ft 484 kts 144°
2026-05-05 14:15 12.06723 123.15955 30884 ft 484 kts 144°
2026-05-05 14:15 12.01276 123.19994 30884 ft 484 kts 144°
2026-05-05 14:16 11.95859 123.24008 30884 ft 484 kts 144°
2026-05-05 14:16 11.90443 123.28021 30885 ft 484 kts 144°
2026-05-05 14:17 11.85010 123.32044 30885 ft 484 kts 144°
2026-05-05 14:17 11.79569 123.36070 30885 ft 484 kts 144°
2026-05-05 14:18 11.74142 123.40085 30885 ft 484 kts 144°
2026-05-05 14:18 11.68790 123.44041 30885 ft 484 kts 144°
2026-05-05 14:19 11.63361 123.48052 30885 ft 484 kts 144°
2026-05-05 14:19 11.57917 123.52073 30885 ft 484 kts 144°
2026-05-05 14:20 11.52503 123.56069 30885 ft 484 kts 144°
2026-05-05 14:20 11.47084 123.60068 30885 ft 484 kts 144°
2026-05-05 14:21 11.41704 123.64036 30885 ft 484 kts 144°
2026-05-05 14:21 11.39039 123.66001 30728 ft 473 kts 144°
2026-05-05 14:21 11.36445 123.67914 30502 ft 457 kts 144°
2026-05-05 14:22 11.34018 123.69704 29999 ft 442 kts 145°
2026-05-05 14:22 11.31582 123.71500 29224 ft 434 kts 145°
2026-05-05 14:22 11.29171 123.73276 28180 ft 432 kts 145°
2026-05-05 14:22 11.26731 123.75073 27200 ft 434 kts 145°
2026-05-05 14:23 11.24303 123.76862 26403 ft 433 kts 145°
2026-05-05 14:23 11.22075 123.78501 25737 ft 431 kts 145°
2026-05-05 14:23 11.19661 123.80262 25050 ft 427 kts 148°
2026-05-05 14:23 11.17066 123.81621 24259 ft 424 kts 161°
2026-05-05 14:24 11.14255 123.82439 23475 ft 419 kts 170°
2026-05-05 14:24 11.11372 123.82806 22796 ft 414 kts 178°
2026-05-05 14:24 11.08522 123.82739 22153 ft 408 kts 187°
2026-05-05 14:24 11.05774 123.82240 21530 ft 403 kts 194°
2026-05-05 14:25 11.03075 123.81529 20867 ft 399 kts 196°
2026-05-05 14:25 11.00461 123.80803 20262 ft 395 kts 197°
2026-05-05 14:25 10.97814 123.80064 19652 ft 391 kts 197°
2026-05-05 14:25 10.95214 123.79337 19051 ft 387 kts 197°
2026-05-05 14:26 10.92646 123.78620 18457 ft 383 kts 197°
2026-05-05 14:26 10.90117 123.77914 17872 ft 379 kts 197°
2026-05-05 14:26 10.87571 123.77203 17284 ft 375 kts 197°
2026-05-05 14:26 10.85103 123.76514 16713 ft 372 kts 197°
2026-05-05 14:27 10.82618 123.75821 16139 ft 368 kts 197°
2026-05-05 14:27 10.80166 123.75137 15581 ft 365 kts 197°
2026-05-05 14:27 10.77755 123.74463 15056 ft 361 kts 197°
2026-05-05 14:27 10.75368 123.73797 14579 ft 356 kts 197°
2026-05-05 14:28 10.72982 123.73132 14068 ft 352 kts 197°
2026-05-05 14:28 10.70654 123.72482 13544 ft 350 kts 197°
2026-05-05 14:28 10.68334 123.71835 13011 ft 347 kts 197°
2026-05-05 14:28 10.66023 123.71191 12494 ft 345 kts 197°
2026-05-05 14:29 10.63702 123.70545 11977 ft 343 kts 197°
2026-05-05 14:29 10.61422 123.69910 11453 ft 341 kts 197°
2026-05-05 14:29 10.59166 123.69282 10938 ft 339 kts 197°
2026-05-05 14:29 10.56922 123.68658 10673 ft 329 kts 197°
2026-05-05 14:30 10.54747 123.68053 10494 ft 319 kts 197°
2026-05-05 14:30 10.52636 123.67467 10304 ft 309 kts 197°
2026-05-05 14:30 10.50605 123.66902 10113 ft 301 kts 197°
2026-05-05 14:30 10.48625 123.66351 9917 ft 294 kts 197°
2026-05-05 14:31 10.46645 123.65801 9575 ft 293 kts 197°
2026-05-05 14:31 10.44689 123.65256 9248 ft 292 kts 197°
2026-05-05 14:31 10.42734 123.64712 8924 ft 291 kts 197°
2026-05-05 14:31 10.40789 123.64171 8604 ft 289 kts 197°
2026-05-05 14:32 10.38862 123.63641 8290 ft 289 kts 194°
2026-05-05 14:32 10.36849 123.63427 7893 ft 292 kts 179°
2026-05-05 14:32 10.34852 123.63740 7527 ft 294 kts 164°
2026-05-05 14:32 10.33000 123.64553 7218 ft 293 kts 149°
2026-05-05 14:33 10.31384 123.65768 6932 ft 290 kts 138°
2026-05-05 14:33 10.29913 123.67179 6603 ft 290 kts 135°
2026-05-05 14:33 10.28498 123.68602 6303 ft 288 kts 134°
2026-05-05 14:33 10.27079 123.70040 6030 ft 285 kts 134°
2026-05-05 14:34 10.25713 123.71425 6020 ft 269 kts 134°
2026-05-05 14:34 10.24415 123.72742 5740 ft 259 kts 134°
2026-05-05 14:34 10.23168 123.74007 5336 ft 250 kts 134°
2026-05-05 14:34 10.21955 123.75238 5029 ft 244 kts 134°
2026-05-05 14:35 10.20764 123.76446 4765 ft 238 kts 134°
2026-05-05 14:35 10.19594 123.77633 4524 ft 238 kts 133°
2026-05-05 14:35 10.18407 123.78783 4378 ft 234 kts 135°
2026-05-05 14:35 10.17613 123.80158 4399 ft 232 kts 102°
2026-05-05 14:36 10.17464 123.81809 4407 ft 234 kts 83°
2026-05-05 14:36 10.17690 123.83450 4184 ft 248 kts 79°
2026-05-05 14:36 10.18112 123.85133 3794 ft 239 kts 59°
2026-05-05 14:36 10.19139 123.86338 3750 ft 220 kts 40°
2026-05-05 14:37 10.20261 123.87402 3789 ft 221 kts 43°
2026-05-05 14:37 10.21313 123.88508 3538 ft 217 kts 44°
2026-05-05 14:37 10.22339 123.89571 2990 ft 209 kts 42°
2026-05-05 14:37 10.23373 123.90569 2567 ft 198 kts 43°
2026-05-05 14:38 10.24233 123.91437 2231 ft 180 kts 43°
2026-05-05 14:38 10.25082 123.92271 1802 ft 170 kts 42°
2026-05-05 14:38 10.25899 123.93082 1374 ft 161 kts 44°
2026-05-05 14:38 10.26672 123.93861 977 ft 152 kts 43°
2026-05-05 14:39 10.27376 123.94572 713 ft 144 kts 43°
2026-05-05 14:39 10.28065 123.95248 508 ft 135 kts 44°
2026-05-05 14:39 10.28736 123.95921 359 ft 136 kts 43°
2026-05-05 14:39 10.29411 123.96596 169 ft 138 kts 43°
2026-05-05 14:40 10.30090 123.97271 44 ft 128 kts 44°
2026-05-05 14:40 10.30570 123.97755 42 ft 67 kts 45°
2026-05-05 14:40 10.30868 123.98055 42 ft 44 kts 45°
2026-05-05 14:40 10.31022 123.98208 42 ft 23 kts 43°
2026-05-05 14:41 10.31152 123.98299 42 ft 23 kts 26°
2026-05-05 14:41 10.31305 123.98350 42 ft 18 kts
2026-05-05 14:41 10.31409 123.98305 42 ft 16 kts 315°
2026-05-05 14:41 10.31489 123.98220 42 ft 17 kts 312°
2026-05-05 14:42 10.31561 123.98137 42 ft 12 kts 286°
2026-05-05 14:42 10.31524 123.98065 42 ft 13 kts 227°
2026-05-05 14:42 10.31461 123.98000 42 ft 14 kts 225°
2026-05-05 14:42 10.31391 123.97932 42 ft 12 kts 223°
2026-05-05 14:43 10.31342 123.97895 42 ft 9 kts 213°
2026-05-05 14:43 10.31295 123.97856 42 ft 8 kts 217°
2026-05-05 14:43 10.31253 123.97825 42 ft 8 kts 221°
2026-05-05 14:43 10.31228 123.97800 42 ft 0 kts 224°
2026-05-05 14:44 10.31226 123.97800 42 ft 0 kts 224°